Weather History for Nashua, NH

Change the Weather History Date:

Thursday, March 3, 2011

  Actual Average Record
Temperature  
Mean Temperature 18 °F -  
Max Temperature 27 °F 38 °F 64 °F (1991)
Min Temperature 9 °F 20 °F -3 °F (1950)
Degree Days  
Heating Degree Days 47    
Moisture  
Dew Point -6 °F    
Average Humidity 38    
Maximum Humidity 54    
Minimum Humidity 20    
Precipitation  
Precipitation 0.00 in - - ()
Sea Level Pressure  
Sea Level Pressure 30.61 in    
Wind  
Wind Speed 9 mph (NNW)    
Max Wind Speed 15 mph    
Max Gust Speed 18 mph    
Visibility 10 miles    
Events      
Averages and records for this station are not official NWS values.
T = Trace of Precipitation, MM = Missing Value Source: NWS Daily Summary

Daily Weather History Graph

Daily Weather History Graph

Search for Another Location

Airport:

Trip Planner

Search our weather history database for the weather conditions in past years. The results will help you decide how hot, cold, wet, or windy it might be!

Date:

Astronomy

Mar. 03, 2011 Rise Set
Actual Time 6:19 AM EST 5:37 PM EST
Civil Twilight 5:50 AM EST 6:06 PM EST
Nautical Twilight 5:18 AM EST 6:38 PM EST
Astronomical Twilight 4:45 AM EST 7:11 PM EST
Moon 5:25 AM EST (3/3) 4:47 PM EST (3/3)
Length of Visible Light 12h 15m
Length of Day
11h 18m
Waning Crescent, 1% of the Moon is Illuminated
Mar 3
Waning Crescent
Mar 4
New
Mar 12
First Quarter
Mar 19
Full
Mar 26
Last Quarter

Hourly Weather History & Observations

Time (EST) Temp. Windchill Dew Point Humidity Pressure Visibility Wind Dir Wind Speed Gust Speed Precip Events Conditions
12:51 AM 14.0 °F 1.2 °F -0.9 °F 52% 30.40 in 10.0 mi NNW 10.4 mph - N/A   Clear
1:51 AM 13.1 °F -1.4 °F -4.0 °F 47% 30.43 in 10.0 mi NNW 12.7 mph - N/A   Clear
3:51 AM 10.0 °F -6.5 °F -8.0 °F 44% 30.49 in 10.0 mi NNW 15.0 mph - N/A   Clear
4:51 AM 9.1 °F -5.6 °F -8.0 °F 46% 30.52 in 10.0 mi NNW 11.5 mph - N/A   Clear
5:51 AM 9.1 °F -4.9 °F -8.9 °F 44% 30.55 in 10.0 mi NW 10.4 mph - N/A   Clear
6:51 AM 9.1 °F - -8.0 °F 46% 30.58 in 10.0 mi Calm Calm - N/A   Clear
7:51 AM 10.0 °F -3.7 °F -8.9 °F 42% 30.62 in 10.0 mi NNW 10.4 mph - N/A   Clear
8:51 AM 13.1 °F -1.4 °F -8.0 °F 39% 30.63 in 10.0 mi NNW 12.7 mph - N/A   Clear
9:51 AM 16.2 °F 2.5 °F -6.9 °F 36% 30.64 in 10.0 mi NW 12.7 mph - N/A   Clear
10:51 AM 19.0 °F 6.8 °F -8.9 °F 29% 30.63 in 10.0 mi NW 11.5 mph - N/A   Clear
11:51 AM 22.1 °F 9.5 °F -8.0 °F 26% 30.62 in 10.0 mi NW 13.8 mph - N/A   Clear
12:51 PM 24.1 °F 15.2 °F -8.9 °F 23% 30.61 in 10.0 mi NW 8.1 mph - N/A   Clear
1:51 PM 25.2 °F 16.5 °F -8.9 °F 22% 30.58 in 10.0 mi NW 8.1 mph 17.3 mph N/A   Clear
2:51 PM 26.1 °F 15.6 °F -6.9 °F 24% 30.59 in 10.0 mi NNW 11.5 mph 18.4 mph N/A   Clear
3:51 PM 27.1 °F 18.9 °F -6.9 °F 23% 30.59 in 10.0 mi NNW 8.1 mph 13.8 mph N/A   Clear
4:51 PM 26.1 °F 20.5 °F -9.9 °F 20% 30.61 in 10.0 mi North 4.6 mph - N/A   Clear
5:51 PM 24.1 °F 16.0 °F -8.9 °F 23% 30.65 in 10.0 mi Variable 6.9 mph - N/A   Clear
6:51 PM 20.1 °F - 0.1 °F 42% 30.68 in 10.0 mi Calm Calm - N/A   Clear
7:51 PM 16.2 °F - 2.1 °F 54% 30.69 in 10.0 mi Calm Calm - N/A   Clear
8:51 PM 15.1 °F - -0.9 °F 49% 30.72 in 10.0 mi Calm Calm - N/A   Clear
9:51 PM 13.1 °F - -2.9 °F 49% 30.72 in 10.0 mi Calm Calm - N/A   Clear
10:51 PM 14.0 °F 5.1 °F -4.0 °F 45% 30.73 in 10.0 mi NNW 5.8 mph - N/A   Clear
11:51 PM 13.1 °F 4.0 °F -2.9 °F 49% 30.72 in 10.0 mi WNW 5.8 mph - N/A   Clear